Time,TemperatureF,DewpointF,PressureIn,WindDirection,WindDirectionDegrees,WindSpeedMPH,WindSpeedGustMPH,Humidity,HourlyPrecipIn,Conditions,Clouds,dailyrainin,SoftwareType,DateUTC
2013-10-15 00:00:00,50.0,48.3,30.28,NE,50,0.0,0.0,94,0.00,,,0.00,Wunderground v.1.15,2013-10-15 04:00:00,
2013-10-15 00:05:00,49.8,48.1,30.28,NE,50,0.0,0.0,94,0.00,,,0.00,Wunderground v.1.15,2013-10-15 04:05:00,
2013-10-15 00:10:00,49.8,48.1,30.28,NE,50,0.0,0.0,94,0.00,,,0.00,Wunderground v.1.15,2013-10-15 04:10:00,
2013-10-15 00:15:00,49.7,48.0,30.28,NE,50,0.0,0.0,94,0.00,,,0.00,Wunderground v.1.15,2013-10-15 04:15:00,
2013-10-15 00:20:00,49.6,47.9,30.28,NE,50,0.0,0.0,94,0.00,,,0.00,Wunderground v.1.15,2013-10-15 04:20:00,
2013-10-15 00:25:00,49.5,47.8,30.28,NE,50,0.0,0.0,94,0.00,,,0.00,Wunderground v.1.15,2013-10-15 04:25:00,
2013-10-15 00:35:00,49.2,47.5,30.27,NE,50,0.0,0.0,94,0.00,,,0.00,Wunderground v.1.15,2013-10-15 04:35:00,
2013-10-15 00:40:00,49.2,47.8,30.27,NE,50,0.0,0.0,95,0.00,,,0.00,Wunderground v.1.15,2013-10-15 04:40:00,
2013-10-15 00:45:00,49.2,47.8,30.27,NE,50,0.0,0.0,95,0.00,,,0.00,Wunderground v.1.15,2013-10-15 04:45:00,
2013-10-15 00:50:00,49.1,47.7,30.27,NE,50,0.0,0.0,95,0.00,,,0.00,Wunderground v.1.15,2013-10-15 04:50:00,
2013-10-15 00:55:00,49.0,47.6,30.26,NE,50,0.0,0.0,95,0.00,,,0.00,Wunderground v.1.15,2013-10-15 04:55:00,
2013-10-15 01:00:00,48.9,47.5,30.26,NE,50,0.0,0.0,95,0.00,,,0.00,Wunderground v.1.15,2013-10-15 05:00:00,
2013-10-15 01:10:00,49.0,47.6,30.26,NE,50,0.0,0.0,95,0.00,,,0.00,Wunderground v.1.15,2013-10-15 05:10:00,
2013-10-15 01:20:00,48.8,47.4,30.26,NE,50,0.0,0.0,95,0.00,,,0.00,Wunderground v.1.15,2013-10-15 05:20:00,
2013-10-15 01:30:00,48.6,47.2,30.26,NE,50,0.0,0.0,95,0.00,,,0.00,Wunderground v.1.15,2013-10-15 05:30:00,
2013-10-15 01:40:00,48.5,47.1,30.26,NE,50,0.0,0.0,95,0.00,,,0.00,Wunderground v.1.15,2013-10-15 05:40:00,
2013-10-15 01:50:00,48.3,47.2,30.26,NE,50,0.0,0.0,96,0.00,,,0.00,Wunderground v.1.15,2013-10-15 05:50:00,
2013-10-15 02:00:00,48.2,46.8,30.26,NE,50,0.0,0.0,95,0.00,,,0.00,Wunderground v.1.15,2013-10-15 06:00:00,
2013-10-15 02:10:00,48.3,47.2,30.25,NE,50,0.0,0.0,96,0.00,,,0.00,Wunderground v.1.15,2013-10-15 06:10:00,
2013-10-15 02:15:00,48.2,47.1,30.25,NE,50,0.0,0.0,96,0.00,,,0.00,Wunderground v.1.15,2013-10-15 06:15:00,
2013-10-15 02:20:00,48.2,47.1,30.25,NE,50,0.0,0.0,96,0.00,,,0.00,Wunderground v.1.15,2013-10-15 06:20:00,
2013-10-15 02:25:00,48.2,47.1,30.25,NE,50,0.0,0.0,96,0.00,,,0.00,Wunderground v.1.15,2013-10-15 06:25:00,
2013-10-15 02:30:00,48.1,47.0,30.25,NE,50,0.0,0.0,96,0.00,,,0.00,Wunderground v.1.15,2013-10-15 06:30:00,
2013-10-15 02:35:00,48.1,47.0,30.25,NE,50,0.0,0.0,96,0.00,,,0.00,Wunderground v.1.15,2013-10-15 06:35:00,
2013-10-15 02:40:00,48.0,46.9,30.25,NE,50,0.0,0.0,96,0.00,,,0.00,Wunderground v.1.15,2013-10-15 06:40:00,
2013-10-15 02:50:00,48.1,47.0,30.25,NE,50,0.0,0.0,96,0.00,,,0.00,Wunderground v.1.15,2013-10-15 06:50:00,
2013-10-15 03:00:00,48.0,46.9,30.25,NE,50,0.0,0.0,96,0.00,,,0.00,Wunderground v.1.15,2013-10-15 07:00:00,
2013-10-15 03:10:00,48.0,46.9,30.24,NE,50,0.0,0.0,96,0.00,,,0.00,Wunderground v.1.15,2013-10-15 07:10:00,
2013-10-15 03:20:00,48.0,46.9,30.24,NE,50,0.0,0.0,96,0.00,,,0.00,Wunderground v.1.15,2013-10-15 07:20:00,
2013-10-15 03:30:00,47.9,46.8,30.24,NE,50,0.0,0.0,96,0.00,,,0.00,Wunderground v.1.15,2013-10-15 07:30:00,
2013-10-15 03:40:00,47.8,46.7,30.24,NE,50,0.0,0.0,96,0.00,,,0.00,Wunderground v.1.15,2013-10-15 07:40:00,
2013-10-15 03:50:00,47.7,46.6,30.24,NE,50,0.0,0.0,96,0.00,,,0.00,Wunderground v.1.15,2013-10-15 07:50:00,
2013-10-15 04:00:00,47.8,46.7,30.24,NE,50,0.0,0.0,96,0.00,,,0.00,Wunderground v.1.15,2013-10-15 08:00:00,
2013-10-15 04:10:00,47.8,46.7,30.24,NE,50,0.0,0.0,96,0.00,,,0.00,Wunderground v.1.15,2013-10-15 08:10:00,
2013-10-15 04:20:00,47.8,47.0,30.24,NE,50,0.0,0.0,97,0.00,,,0.00,Wunderground v.1.15,2013-10-15 08:20:00,
2013-10-15 04:25:00,47.8,46.7,30.24,NE,50,0.0,0.0,96,0.00,,,0.00,Wunderground v.1.15,2013-10-15 08:25:00,
2013-10-15 04:35:00,47.7,46.9,30.24,NE,50,0.0,0.0,97,0.00,,,0.00,Wunderground v.1.15,2013-10-15 08:35:00,
2013-10-15 04:50:00,47.6,46.8,30.24,NE,50,0.0,0.0,97,0.00,,,0.00,Wunderground v.1.15,2013-10-15 08:50:00,
2013-10-15 04:55:00,47.5,46.4,30.24,NE,50,0.0,0.0,96,0.00,,,0.00,Wunderground v.1.15,2013-10-15 08:55:00,
2013-10-15 05:00:00,47.5,46.4,30.24,NE,50,0.0,0.0,96,0.00,,,0.00,Wunderground v.1.15,2013-10-15 09:00:00,
2013-10-15 05:10:00,47.5,46.4,30.24,NE,50,0.0,0.0,96,0.00,,,0.00,Wunderground v.1.15,2013-10-15 09:10:00,
2013-10-15 05:20:00,47.3,46.2,30.24,NE,50,0.0,0.0,96,0.00,,,0.00,Wunderground v.1.15,2013-10-15 09:20:00,
2013-10-15 05:30:00,47.2,46.4,30.24,NE,50,0.0,0.0,97,0.00,,,0.00,Wunderground v.1.15,2013-10-15 09:30:00,
2013-10-15 05:35:00,47.3,46.5,30.24,NE,50,0.0,0.0,97,0.00,,,0.00,Wunderground v.1.15,2013-10-15 09:35:00,
2013-10-15 05:40:00,47.3,46.5,30.24,NE,50,0.0,0.0,97,0.00,,,0.00,Wunderground v.1.15,2013-10-15 09:40:00,
2013-10-15 05:50:00,47.2,46.4,30.24,NE,50,0.0,0.0,97,0.00,,,0.00,Wunderground v.1.15,2013-10-15 09:50:00,
2013-10-15 06:00:00,47.0,46.2,30.24,NE,50,0.0,0.0,97,0.00,,,0.00,Wunderground v.1.15,2013-10-15 10:00:00,
2013-10-15 06:10:00,47.0,46.2,30.24,NE,50,0.0,0.0,97,0.00,,,0.00,Wunderground v.1.15,2013-10-15 10:10:00,
2013-10-15 06:20:00,46.9,46.1,30.24,NE,50,0.0,0.0,97,0.00,,,0.00,Wunderground v.1.15,2013-10-15 10:20:00,
2013-10-15 06:25:00,46.9,46.1,30.24,NE,50,0.0,0.0,97,0.00,,,0.00,Wunderground v.1.15,2013-10-15 10:25:00,
2013-10-15 06:35:00,46.8,46.0,30.23,NE,50,0.0,0.0,97,0.00,,,0.00,Wunderground v.1.15,2013-10-15 10:35:00,
2013-10-15 06:40:00,46.7,45.9,30.23,NE,50,0.0,0.0,97,0.00,,,0.00,Wunderground v.1.15,2013-10-15 10:40:00,
2013-10-15 06:45:00,46.5,45.7,30.23,NE,50,0.0,0.0,97,0.00,,,0.00,Wunderground v.1.15,2013-10-15 10:45:00,
2013-10-15 06:55:00,46.4,45.6,30.24,NE,50,0.0,0.0,97,0.00,,,0.00,Wunderground v.1.15,2013-10-15 10:55:00,
2013-10-15 07:00:00,46.3,45.5,30.24,NE,50,0.0,0.0,97,0.00,,,0.00,Wunderground v.1.15,2013-10-15 11:00:00,
2013-10-15 07:10:00,46.3,45.5,30.23,NE,50,0.0,0.0,97,0.00,,,0.00,Wunderground v.1.15,2013-10-15 11:10:00,
2013-10-15 07:15:00,46.2,45.4,30.23,NE,50,0.0,0.0,97,0.00,,,0.00,Wunderground v.1.15,2013-10-15 11:15:00,
2013-10-15 07:25:00,46.0,45.2,30.23,NE,50,0.0,0.0,97,0.00,,,0.00,Wunderground v.1.15,2013-10-15 11:25:00,
2013-10-15 07:35:00,46.0,45.2,30.24,NE,50,0.0,0.0,97,0.00,,,0.00,Wunderground v.1.15,2013-10-15 11:35:00,
2013-10-15 07:40:00,46.0,45.2,30.24,NE,50,0.0,0.0,97,0.00,,,0.00,Wunderground v.1.15,2013-10-15 11:40:00,
2013-10-15 07:45:00,46.0,45.2,30.24,NE,50,0.0,0.0,97,0.00,,,0.00,Wunderground v.1.15,2013-10-15 11:45:00,
2013-10-15 07:55:00,46.0,45.2,30.24,NE,50,0.0,0.0,97,0.00,,,0.00,Wunderground v.1.15,2013-10-15 11:55:00,
2013-10-15 08:00:00,46.1,45.3,30.25,NE,50,0.0,0.0,97,0.00,,,0.00,Wunderground v.1.15,2013-10-15 12:00:00,
2013-10-15 08:10:00,46.4,45.6,30.25,NE,50,0.0,0.0,97,0.00,,,0.00,Wunderground v.1.15,2013-10-15 12:10:00,
2013-10-15 08:15:00,46.5,45.7,30.25,NE,50,0.0,0.0,97,0.00,,,0.00,Wunderground v.1.15,2013-10-15 12:15:00,
2013-10-15 08:20:00,46.7,45.9,30.25,NE,50,0.0,0.0,97,0.00,,,0.00,Wunderground v.1.15,2013-10-15 12:20:00,
2013-10-15 08:30:00,47.4,46.9,30.25,NE,50,0.0,0.0,98,0.00,,,0.00,Wunderground v.1.15,2013-10-15 12:30:00,
2013-10-15 08:40:00,48.1,47.6,30.25,NE,50,0.0,0.0,98,0.00,,,0.00,Wunderground v.1.15,2013-10-15 12:40:00,
2013-10-15 08:50:00,48.9,48.4,30.25,NE,50,0.0,0.0,98,0.00,,,0.00,Wunderground v.1.15,2013-10-15 12:50:00,
2013-10-15 09:00:00,50.1,49.6,30.25,NE,50,0.0,0.0,98,0.00,,,0.00,Wunderground v.1.15,2013-10-15 13:00:00,
2013-10-15 09:10:00,51.4,50.9,30.25,NE,50,0.0,0.0,98,0.00,,,0.00,Wunderground v.1.15,2013-10-15 13:10:00,
2013-10-15 09:20:00,52.4,51.9,30.25,NE,50,0.0,0.0,98,0.00,,,0.00,Wunderground v.1.15,2013-10-15 13:20:00,
2013-10-15 09:25:00,52.8,52.3,30.25,North,350,0.0,2.0,98,0.00,,,0.00,Wunderground v.1.15,2013-10-15 13:25:00,
2013-10-15 09:30:00,53.3,52.8,30.25,North,350,0.0,0.0,98,0.00,,,0.00,Wunderground v.1.15,2013-10-15 13:30:00,
2013-10-15 09:40:00,53.9,53.3,30.25,NNW,343,0.0,0.0,98,0.00,,,0.00,Wunderground v.1.15,2013-10-15 13:40:00,
2013-10-15 09:50:00,54.5,53.7,30.25,NNW,343,0.0,1.0,97,0.00,,,0.00,Wunderground v.1.15,2013-10-15 13:50:00,
2013-10-15 10:00:00,55.4,54.3,30.25,NNW,343,0.0,0.0,96,0.00,,,0.00,Wunderground v.1.15,2013-10-15 14:00:00,
2013-10-15 10:05:00,55.9,54.5,30.25,NNW,343,0.0,0.0,95,0.00,,,0.00,Wunderground v.1.15,2013-10-15 14:05:00,
2013-10-15 10:15:00,57.0,54.7,30.25,NNW,343,0.0,1.0,92,0.00,,,0.00,Wunderground v.1.15,2013-10-15 14:15:00,
2013-10-15 10:25:00,58.2,55.3,30.25,NNW,343,0.0,1.0,90,0.00,,,0.00,Wunderground v.1.15,2013-10-15 14:25:00,
2013-10-15 10:30:00,59.0,55.4,30.25,NW,319,0.0,0.0,88,0.00,,,0.00,Wunderground v.1.15,2013-10-15 14:30:00,
2013-10-15 10:40:00,60.3,55.8,30.25,NW,319,0.0,1.0,85,0.00,,,0.00,Wunderground v.1.15,2013-10-15 14:40:00,
2013-10-15 10:45:00,60.9,55.7,30.24,NW,319,1.0,1.0,83,0.00,,,0.00,Wunderground v.1.15,2013-10-15 14:45:00,
2013-10-15 10:50:00,61.4,55.9,30.25,NW,319,1.0,1.0,82,0.00,,,0.00,Wunderground v.1.15,2013-10-15 14:50:00,
2013-10-15 11:00:00,62.4,56.8,30.24,SE,137,0.0,1.0,82,0.00,,,0.00,Wunderground v.1.15,2013-10-15 15:00:00,
2013-10-15 11:10:00,63.5,55.8,30.23,East,97,1.0,1.0,76,0.00,,,0.00,Wunderground v.1.15,2013-10-15 15:10:00,
2013-10-15 11:20:00,64.3,56.6,30.23,NE,42,1.0,1.0,76,0.00,,,0.00,Wunderground v.1.15,2013-10-15 15:20:00,
2013-10-15 11:25:00,64.5,56.4,30.23,NE,54,1.0,1.0,75,0.00,,,0.00,Wunderground v.1.15,2013-10-15 15:25:00,
2013-10-15 11:30:00,64.7,56.6,30.23,ENE,71,1.0,1.0,75,0.00,,,0.00,Wunderground v.1.15,2013-10-15 15:30:00,
2013-10-15 11:35:00,64.9,56.0,30.22,ESE,105,1.0,1.0,73,0.00,,,0.00,Wunderground v.1.15,2013-10-15 15:35:00,
2013-10-15 11:45:00,65.5,56.6,30.22,ENE,72,1.0,1.0,73,0.00,,,0.00,Wunderground v.1.15,2013-10-15 15:45:00,
2013-10-15 11:50:00,65.9,56.2,30.22,ESE,121,1.0,1.0,71,0.00,,,0.00,Wunderground v.1.15,2013-10-15 15:50:00,
2013-10-15 12:00:00,66.2,56.1,30.21,ENE,71,1.0,1.0,70,0.00,,,0.00,Wunderground v.1.15,2013-10-15 16:00:00,
2013-10-15 12:10:00,66.8,55.9,30.21,ENE,60,1.0,1.0,68,0.00,,,0.00,Wunderground v.1.15,2013-10-15 16:10:00,
2013-10-15 12:15:00,67.1,56.6,30.21,ESE,115,1.0,2.0,69,0.00,,,0.00,Wunderground v.1.15,2013-10-15 16:15:00,
2013-10-15 12:20:00,67.4,56.9,30.21,ESE,115,0.0,0.0,69,0.00,,,0.00,Wunderground v.1.15,2013-10-15 16:20:00,
2013-10-15 12:30:00,68.3,55.6,30.21,ENE,67,1.0,1.0,64,0.00,,,0.00,Wunderground v.1.15,2013-10-15 16:30:00,
2013-10-15 12:35:00,68.4,55.3,30.21,ESE,109,1.0,2.0,63,0.00,,,0.00,Wunderground v.1.15,2013-10-15 16:35:00,
2013-10-15 12:40:00,68.4,54.9,30.21,South,171,1.0,3.0,62,0.00,,,0.00,Wunderground v.1.15,2013-10-15 16:40:00,
2013-10-15 12:50:00,68.6,55.9,30.20,North,9,1.0,1.0,64,0.00,,,0.00,Wunderground v.1.15,2013-10-15 16:50:00,
2013-10-15 13:00:00,68.9,54.0,30.20,NE,51,1.0,1.0,59,0.00,,,0.00,Wunderground v.1.15,2013-10-15 17:00:00,
2013-10-15 13:10:00,69.0,55.4,30.19,NW,311,1.0,3.0,62,0.00,,,0.00,Wunderground v.1.15,2013-10-15 17:10:00,
2013-10-15 13:15:00,69.3,56.2,30.19,SSW,213,0.0,3.0,63,0.00,,,0.00,Wunderground v.1.15,2013-10-15 17:15:00,
2013-10-15 13:20:00,69.7,55.6,30.19,NE,55,1.0,1.0,61,0.00,,,0.00,Wunderground v.1.15,2013-10-15 17:20:00,
2013-10-15 13:30:00,69.9,54.4,30.18,ENE,68,1.0,1.0,58,0.00,,,0.00,Wunderground v.1.15,2013-10-15 17:30:00,
2013-10-15 13:35:00,69.9,54.9,30.18,ESE,118,1.0,1.0,59,0.00,,,0.00,Wunderground v.1.15,2013-10-15 17:35:00,
2013-10-15 13:40:00,70.0,54.1,30.18,NE,48,1.0,1.0,57,0.00,,,0.00,Wunderground v.1.15,2013-10-15 17:40:00,
2013-10-15 13:45:00,70.0,54.5,30.18,NE,48,1.0,1.0,58,0.00,,,0.00,Wunderground v.1.15,2013-10-15 17:45:00,
2013-10-15 13:50:00,70.0,55.0,30.18,ENE,72,1.0,1.0,59,0.00,,,0.00,Wunderground v.1.15,2013-10-15 17:50:00,
2013-10-15 14:00:00,69.8,53.4,30.18,NE,51,1.0,1.0,56,0.00,,,0.00,Wunderground v.1.15,2013-10-15 18:00:00,
2013-10-15 14:10:00,69.7,53.8,30.17,East,82,1.0,1.0,57,0.00,,,0.00,Wunderground v.1.15,2013-10-15 18:10:00,
2013-10-15 14:15:00,69.7,51.8,30.17,East,87,1.0,1.0,53,0.00,,,0.00,Wunderground v.1.15,2013-10-15 18:15:00,
2013-10-15 14:25:00,69.6,52.2,30.17,East,98,1.0,1.0,54,0.00,,,0.00,Wunderground v.1.15,2013-10-15 18:25:00,
2013-10-15 14:35:00,69.7,51.8,30.16,SE,139,1.0,3.0,53,0.00,,,0.00,Wunderground v.1.15,2013-10-15 18:35:00,
2013-10-15 14:40:00,69.8,51.9,30.16,East,96,1.0,1.0,53,0.00,,,0.00,Wunderground v.1.15,2013-10-15 18:40:00,
2013-10-15 14:50:00,69.9,50.4,30.16,ENE,70,1.0,3.0,50,0.00,,,0.00,Wunderground v.1.15,2013-10-15 18:50:00,
2013-10-15 14:55:00,70.1,51.1,30.16,NE,36,1.0,3.0,51,0.00,,,0.00,Wunderground v.1.15,2013-10-15 18:55:00,
2013-10-15 15:00:00,70.1,50.0,30.15,ENE,65,1.0,3.0,49,0.00,,,0.00,Wunderground v.1.15,2013-10-15 19:00:00,
2013-10-15 15:10:00,70.2,50.7,30.15,East,82,1.0,1.0,50,0.00,,,0.00,Wunderground v.1.15,2013-10-15 19:10:00,
2013-10-15 15:15:00,70.2,51.2,30.14,SE,128,1.0,1.0,51,0.00,,,0.00,Wunderground v.1.15,2013-10-15 19:15:00,
2013-10-15 15:20:00,70.2,50.1,30.14,ENE,71,1.0,2.0,49,0.00,,,0.00,Wunderground v.1.15,2013-10-15 19:20:00,
2013-10-15 15:30:00,70.3,50.8,30.14,NE,42,1.0,1.0,50,0.00,,,0.00,Wunderground v.1.15,2013-10-15 19:30:00,
2013-10-15 15:35:00,70.2,49.0,30.14,East,90,1.0,1.0,47,0.00,,,0.00,Wunderground v.1.15,2013-10-15 19:35:00,
2013-10-15 15:45:00,70.3,51.3,30.14,ENE,63,1.0,1.0,51,0.00,,,0.00,Wunderground v.1.15,2013-10-15 19:45:00,
2013-10-15 15:50:00,70.3,50.8,30.14,ENE,58,1.0,1.0,50,0.00,,,0.00,Wunderground v.1.15,2013-10-15 19:50:00,
2013-10-15 15:55:00,70.4,53.0,30.14,NE,53,1.0,1.0,54,0.00,,,0.00,Wunderground v.1.15,2013-10-15 19:55:00,
2013-10-15 16:00:00,70.5,52.0,30.14,NE,53,1.0,1.0,52,0.00,,,0.00,Wunderground v.1.15,2013-10-15 20:00:00,
2013-10-15 16:10:00,70.5,48.7,30.13,ENE,62,1.0,1.0,46,0.00,,,0.00,Wunderground v.1.15,2013-10-15 20:10:00,
2013-10-15 16:15:00,70.4,49.2,30.14,ENE,65,1.0,1.0,47,0.00,,,0.00,Wunderground v.1.15,2013-10-15 20:15:00,
2013-10-15 16:25:00,70.3,49.1,30.14,East,96,0.0,0.0,47,0.00,,,0.00,Wunderground v.1.15,2013-10-15 20:25:00,
2013-10-15 16:30:00,70.2,47.3,30.14,ENE,76,1.0,1.0,44,0.00,,,0.00,Wunderground v.1.15,2013-10-15 20:30:00,
2013-10-15 16:35:00,70.1,47.2,30.13,ENE,77,1.0,2.0,44,0.00,,,0.00,Wunderground v.1.15,2013-10-15 20:35:00,
2013-10-15 16:40:00,70.0,47.1,30.13,ENE,76,1.0,1.0,44,0.00,,,0.00,Wunderground v.1.15,2013-10-15 20:40:00,
2013-10-15 16:50:00,69.7,46.8,30.13,East,91,0.0,0.0,44,0.00,,,0.00,Wunderground v.1.15,2013-10-15 20:50:00,
2013-10-15 16:55:00,69.6,46.7,30.13,East,91,0.0,0.0,44,0.00,,,0.00,Wunderground v.1.15,2013-10-15 20:55:00,
2013-10-15 17:00:00,69.4,47.1,30.13,East,91,0.0,0.0,45,0.00,,,0.00,Wunderground v.1.15,2013-10-15 21:00:00,
2013-10-15 17:10:00,69.0,47.9,30.13,East,91,0.0,0.0,47,0.00,,,0.00,Wunderground v.1.15,2013-10-15 21:10:00,
2013-10-15 17:15:00,68.7,47.6,30.14,East,91,0.0,0.0,47,0.00,,,0.00,Wunderground v.1.15,2013-10-15 21:15:00,
2013-10-15 17:20:00,68.5,48.0,30.13,East,91,0.0,0.0,48,0.00,,,0.00,Wunderground v.1.15,2013-10-15 21:20:00,
2013-10-15 17:25:00,68.3,48.4,30.14,East,91,0.0,0.0,49,0.00,,,0.00,Wunderground v.1.15,2013-10-15 21:25:00,
2013-10-15 17:30:00,68.1,48.8,30.14,East,91,0.0,0.0,50,0.00,,,0.00,Wunderground v.1.15,2013-10-15 21:30:00,
2013-10-15 17:40:00,67.5,47.7,30.14,East,85,0.0,0.0,49,0.00,,,0.00,Wunderground v.1.15,2013-10-15 21:40:00,
2013-10-15 17:45:00,67.2,47.4,30.14,East,85,0.0,2.0,49,0.00,,,0.00,Wunderground v.1.15,2013-10-15 21:45:00,
2013-10-15 17:50:00,66.8,47.0,30.14,East,85,0.0,0.0,49,0.00,,,0.00,Wunderground v.1.15,2013-10-15 21:50:00,
2013-10-15 18:00:00,66.1,46.4,30.14,East,85,0.0,0.0,49,0.00,,,0.00,Wunderground v.1.15,2013-10-15 22:00:00,
2013-10-15 18:10:00,65.3,45.6,30.14,ESE,103,0.0,0.0,49,0.00,,,0.00,Wunderground v.1.15,2013-10-15 22:10:00,
2013-10-15 18:15:00,64.9,45.3,30.14,ESE,103,0.0,0.0,49,0.00,,,0.00,Wunderground v.1.15,2013-10-15 22:15:00,
2013-10-15 18:20:00,64.5,46.0,30.14,ESE,103,0.0,0.0,51,0.00,,,0.00,Wunderground v.1.15,2013-10-15 22:20:00,
2013-10-15 18:30:00,63.7,45.7,30.15,ESE,103,0.0,0.0,52,0.00,,,0.00,Wunderground v.1.15,2013-10-15 22:30:00,
2013-10-15 18:35:00,63.1,46.2,30.15,ESE,103,0.0,0.0,54,0.00,,,0.00,Wunderground v.1.15,2013-10-15 22:35:00,
2013-10-15 18:40:00,62.6,45.7,30.15,ESE,103,0.0,0.0,54,0.00,,,0.00,Wunderground v.1.15,2013-10-15 22:40:00,
2013-10-15 18:50:00,61.9,46.0,30.15,ESE,103,0.0,0.0,56,0.00,,,0.00,Wunderground v.1.15,2013-10-15 22:50:00,
2013-10-15 18:55:00,61.5,46.6,30.15,ESE,103,0.0,0.0,58,0.00,,,0.00,Wunderground v.1.15,2013-10-15 22:55:00,
2013-10-15 19:05:00,60.6,46.6,30.16,ESE,103,0.0,0.0,60,0.00,,,0.00,Wunderground v.1.15,2013-10-15 23:05:00,
2013-10-15 19:15:00,59.9,46.8,30.16,ESE,103,0.0,0.0,62,0.00,,,0.00,Wunderground v.1.15,2013-10-15 23:15:00,
2013-10-15 19:20:00,59.5,46.9,30.16,ESE,103,0.0,0.0,63,0.00,,,0.00,Wunderground v.1.15,2013-10-15 23:20:00,
2013-10-15 19:30:00,58.9,47.6,30.16,ESE,103,0.0,0.0,66,0.00,,,0.00,Wunderground v.1.15,2013-10-15 23:30:00,
2013-10-15 19:35:00,58.6,47.7,30.16,ESE,103,0.0,0.0,67,0.00,,,0.00,Wunderground v.1.15,2013-10-15 23:35:00,
2013-10-15 19:40:00,58.3,47.8,30.16,ESE,103,0.0,0.0,68,0.00,,,0.00,Wunderground v.1.15,2013-10-15 23:40:00,
2013-10-15 19:45:00,58.0,47.5,30.16,ESE,103,0.0,0.0,68,0.00,,,0.00,Wunderground v.1.15,2013-10-15 23:45:00,
2013-10-15 19:50:00,57.8,47.7,30.16,ESE,103,0.0,0.0,69,0.00,,,0.00,Wunderground v.1.15,2013-10-15 23:50:00,
2013-10-15 20:00:00,57.3,48.0,30.16,ESE,103,0.0,0.0,71,0.00,,,0.00,Wunderground v.1.15,2013-10-16 00:00:00,
2013-10-15 20:10:00,56.8,47.5,30.16,ESE,103,0.0,0.0,71,0.00,,,0.00,Wunderground v.1.15,2013-10-16 00:10:00,
2013-10-15 20:15:00,56.8,47.5,30.16,ESE,103,0.0,0.0,71,0.00,,,0.00,Wunderground v.1.15,2013-10-16 00:15:00,
2013-10-15 20:20:00,56.9,47.6,30.16,ESE,103,0.0,0.0,71,0.00,,,0.00,Wunderground v.1.15,2013-10-16 00:20:00,
2013-10-15 20:25:00,56.9,48.0,30.16,ESE,103,0.0,0.0,72,0.00,,,0.00,Wunderground v.1.15,2013-10-16 00:25:00,
2013-10-15 20:30:00,56.7,47.8,30.16,ESE,103,0.0,0.0,72,0.00,,,0.00,Wunderground v.1.15,2013-10-16 00:30:00,
2013-10-15 20:40:00,56.5,47.9,30.15,ESE,103,0.0,0.0,73,0.00,,,0.00,Wunderground v.1.15,2013-10-16 00:40:00,
2013-10-15 20:45:00,56.4,48.2,30.15,ESE,103,0.0,0.0,74,0.00,,,0.00,Wunderground v.1.15,2013-10-16 00:45:00,
2013-10-15 20:50:00,56.3,47.8,30.15,ESE,103,0.0,0.0,73,0.00,,,0.00,Wunderground v.1.15,2013-10-16 00:50:00,
2013-10-15 20:55:00,56.2,48.0,30.15,ESE,103,0.0,0.0,74,0.00,,,0.00,Wunderground v.1.15,2013-10-16 00:55:00,
2013-10-15 21:00:00,56.0,47.8,30.15,ESE,103,0.0,0.0,74,0.00,,,0.00,Wunderground v.1.15,2013-10-16 01:00:00,
2013-10-15 21:10:00,55.8,48.0,30.15,ESE,103,0.0,0.0,75,0.00,,,0.00,Wunderground v.1.15,2013-10-16 01:10:00,
2013-10-15 21:15:00,55.6,48.2,30.15,ESE,103,0.0,0.0,76,0.00,,,0.00,Wunderground v.1.15,2013-10-16 01:15:00,
2013-10-15 21:20:00,55.6,48.2,30.15,ESE,103,0.0,0.0,76,0.00,,,0.00,Wunderground v.1.15,2013-10-16 01:20:00,
2013-10-15 21:30:00,55.4,48.3,30.15,ESE,103,0.0,0.0,77,0.00,,,0.00,Wunderground v.1.15,2013-10-16 01:30:00,
2013-10-15 21:35:00,55.2,48.1,30.15,ESE,103,0.0,0.0,77,0.00,,,0.00,Wunderground v.1.15,2013-10-16 01:35:00,
2013-10-15 21:45:00,54.9,48.5,30.15,ESE,103,0.0,0.0,79,0.00,,,0.00,Wunderground v.1.15,2013-10-16 01:45:00,
2013-10-15 21:55:00,54.5,48.5,30.15,ESE,103,0.0,0.0,80,0.00,,,0.00,Wunderground v.1.15,2013-10-16 01:55:00,
2013-10-15 22:00:00,54.3,48.3,30.15,ESE,103,0.0,0.0,80,0.00,,,0.00,Wunderground v.1.15,2013-10-16 02:00:00,
2013-10-15 22:10:00,53.9,48.9,30.15,ESE,103,0.0,0.0,83,0.00,,,0.00,Wunderground v.1.15,2013-10-16 02:10:00,
2013-10-15 22:20:00,53.5,48.8,30.16,ESE,103,0.0,0.0,84,0.00,,,0.00,Wunderground v.1.15,2013-10-16 02:20:00,
2013-10-15 22:25:00,53.2,48.5,30.16,ESE,103,0.0,0.0,84,0.00,,,0.00,Wunderground v.1.15,2013-10-16 02:25:00,
2013-10-15 22:30:00,53.0,48.6,30.16,ESE,103,0.0,0.0,85,0.00,,,0.00,Wunderground v.1.15,2013-10-16 02:30:00,
2013-10-15 22:35:00,52.8,48.7,30.16,ESE,103,0.0,0.0,86,0.00,,,0.00,Wunderground v.1.15,2013-10-16 02:35:00,
2013-10-15 22:45:00,52.5,48.7,30.16,ESE,103,0.0,0.0,87,0.00,,,0.00,Wunderground v.1.15,2013-10-16 02:45:00,
2013-10-15 22:50:00,52.4,48.6,30.15,ESE,103,0.0,0.0,87,0.00,,,0.00,Wunderground v.1.15,2013-10-16 02:50:00,
2013-10-15 22:55:00,52.3,48.5,30.15,ESE,103,0.0,0.0,87,0.00,,,0.00,Wunderground v.1.15,2013-10-16 02:55:00,
2013-10-15 23:00:00,52.1,48.3,30.15,ESE,103,0.0,0.0,87,0.00,,,0.00,Wunderground v.1.15,2013-10-16 03:00:00,
2013-10-15 23:10:00,51.9,48.5,30.15,ESE,103,0.0,0.0,88,0.00,,,0.00,Wunderground v.1.15,2013-10-16 03:10:00,
2013-10-15 23:15:00,51.7,48.3,30.14,ESE,103,0.0,0.0,88,0.00,,,0.00,Wunderground v.1.15,2013-10-16 03:15:00,
2013-10-15 23:25:00,51.7,48.6,30.14,ESE,103,0.0,0.0,89,0.00,,,0.00,Wunderground v.1.15,2013-10-16 03:25:00,
2013-10-15 23:35:00,52.0,49.2,30.13,ESE,103,0.0,0.0,90,0.00,,,0.00,Wunderground v.1.15,2013-10-16 03:35:00,
2013-10-15 23:45:00,52.1,49.3,30.12,ESE,103,0.0,0.0,90,0.00,,,0.00,Wunderground v.1.15,2013-10-16 03:45:00,
2013-10-15 23:55:00,52.1,49.3,30.12,ESE,103,0.0,0.0,90,0.00,,,0.00,Wunderground v.1.15,2013-10-16 03:55:00,